Weather History for Whyalla, South Australia

Change the Weather History Date:

Tuesday, March 26, 2013

  Actual Average Record
Temperature  
Mean Temperature 80 °F -  
Max Temperature 100 °F - - ()
Min Temperature 59 °F - - ()
Cooling Degree Days 14    
Growing Degree Days 30 (Base 50)    
Moisture  
Dew Point 46 °F    
Average Humidity 35    
Maximum Humidity 73    
Minimum Humidity 13    
Precipitation  
Precipitation 0.00 in - - ()
Sea Level Pressure  
Sea Level Pressure 29.78 in    
Wind  
Wind Speed 9 mph ()    
Max Wind Speed 24 mph    
Max Gust Speed 38 mph    
Visibility 6.2 miles    
Events      
T = Trace of Precipitation, MM = Missing Value Source: Averaged Metar Reports

Daily Weather History Graph

Daily Weather History Graph

Search for Another Location

Airport:

Trip Planner

Search our weather history database for the weather conditions in past years. The results will help you decide how hot, cold, wet, or windy it might be!

Date:

Astronomy

Mar. 26, 2013 Rise Set
Actual Time 7:27 AM ACDT 7:23 PM ACDT
Civil Twilight 7:02 AM ACDT 7:48 PM ACDT
Nautical Twilight 6:33 AM ACDT 8:16 PM ACDT
Astronomical Twilight 6:05 AM ACDT 8:45 PM ACDT
Moon 6:27 PM ACDT (3/26) 6:00 AM ACDT (3/26)
Length of Visible Light 12h 45m
Length of Day
11h 56m
Waxing Gibbous, 98% of the Moon is Illuminated
Mar 26
Waxing Gibbous
Mar 27
Full
Apr 3
Last Quarter
Apr 10
New
Apr 18
First Quarter

Hourly Weather History & Observations

Time (ACDT) Temp. Dew Point Humidity Pressure Visibility Wind Dir Wind Speed Gust Speed Precip Events Conditions
12:30 AM 66.2 °F 55.4 °F 68% 29.95 in 6.2 mi WSW 4.6 mph - N/A   Unknown
1:30 AM 64.4 °F 55.4 °F 73% 29.92 in 6.2 mi West 4.6 mph - N/A   Unknown
2:30 AM 62.6 °F 53.6 °F 72% 29.92 in 6.2 mi West 1.2 mph - N/A   Unknown
3:30 AM 60.8 °F 50.0 °F 68% 29.89 in 6.2 mi NW 2.3 mph - N/A   Unknown
4:30 AM 59.0 °F 50.0 °F 72% 29.89 in 6.2 mi NW 5.8 mph - N/A   Unknown
5:30 AM 59.0 °F 50.0 °F 72% 29.89 in 6.2 mi NNW 4.6 mph - N/A   Unknown
6:30 AM 60.8 °F 51.8 °F 72% 29.86 in 6.2 mi NNW 6.9 mph - N/A   Unknown
7:30 AM 59.0 °F 50.0 °F 72% 29.89 in 6.2 mi NW 8.1 mph - N/A   Unknown
8:30 AM 66.2 °F 51.8 °F 60% 29.86 in 6.2 mi NNW 4.6 mph - N/A   Unknown
8:54 AM 75.2 °F 53.6 °F 47% 29.86 in 6.2 mi North 2.3 mph - N/A   Unknown
9:30 AM 80.6 °F 50.0 °F 34% 29.86 in 6.2 mi North 12.7 mph - N/A   Unknown
10:30 AM 87.8 °F 48.2 °F 25% 29.86 in 6.2 mi North 17.3 mph - N/A   Unknown
11:30 AM 91.4 °F 42.8 °F 18% 29.83 in 6.2 mi North 21.9 mph - N/A   Unknown
12:30 PM 95.0 °F 39.2 °F 14% 29.80 in 6.2 mi North 24.2 mph - N/A   Unknown
1:30 PM 96.8 °F 39.2 °F 14% 29.77 in 6.2 mi North 24.2 mph 35.7 mph N/A   Unknown
2:00 PM 96.8 °F 39.2 °F 14% 29.74 in 6.2 mi North 23.0 mph 34.5 mph N/A   Unknown
2:30 PM 98.6 °F 42.8 °F 15% 29.74 in 6.2 mi North 20.7 mph 33.4 mph N/A   Unknown
3:30 PM 100.4 °F 41.0 °F 13% 29.68 in 6.2 mi North 19.6 mph - N/A   Unknown
4:30 PM 98.6 °F 41.0 °F 14% 29.68 in 6.2 mi NNW 20.7 mph - N/A   Unknown
4:54 PM 100.4 °F 41.0 °F 13% 29.65 in 6.2 mi North 18.4 mph 38.0 mph N/A   Unknown
5:00 PM 98.6 °F 41.0 °F 14% 29.65 in 6.2 mi North 17.3 mph 38.0 mph N/A   Unknown
5:30 PM 98.6 °F 41.0 °F 14% 29.65 in 6.2 mi North 17.3 mph - N/A   Unknown
6:30 PM 98.6 °F 41.0 °F 14% 29.65 in 6.2 mi North 18.4 mph - N/A   Unknown
7:30 PM 95.0 °F 42.8 °F 16% 29.65 in 6.2 mi North 12.7 mph - N/A   Scattered Clouds
8:30 PM 91.4 °F 42.8 °F 18% 29.68 in 6.2 mi NNE 9.2 mph - N/A   Unknown
9:30 PM 91.4 °F 42.8 °F 18% 29.68 in 6.2 mi North 13.8 mph - N/A   Unknown
10:30 PM 89.6 °F 42.8 °F 20% 29.68 in 6.2 mi North 15.0 mph - N/A   Unknown
11:30 PM 89.6 °F 42.8 °F 20% 29.65 in 6.2 mi North 16.1 mph - N/A   Unknown